www.pogodaiklimat.ru

Погода и климат >> Архив погоды >> Антарктида >> Novolazarevskaja


ПОГОДА в Novolazarevskaja

  • Прогноз погоды в Novolazarevskaja
  • Монитор погоды в Novolazarevskaja
  • Климат города

АРХИВ ПОГОДЫ в Novolazarevskaja

Время (UTC), дата Ветер
(напр.,м/с)
 
Видим.   Явления Облачность Т
(С)
Тd
(С)
f
(%)
Тe
(С)
Тes
(С)
Комфортность P
(гПа)
Po
(гПа)
Тmin
(С)
Tmax
(С)
R
(мм)
R24
(мм)
S
(см)
06 8.08 ЮВ 5
{6}
4000 м слабый снег 10/0
[As op]
-13.2 -20.8 53 -21 -21 992.2 976.6 -17.8 0.2
12 8.08 ЮВ 7
{9}
20 км {снег, метель} 10/0
[Ac As]
-12.4 -20.2 52 -22 -22 990.6 975.1
18 8.08 ЮВ 6
{9}
4000 м слабый снег 10/0
[As op]
-11.6 -16.9 65 -20 -20 988.6 973.2 -11.5 0.2
00 9.08 ЮВ 8
{11}
20 км {снег} 10/0
[Ac As]
-11.1 -23.8 34 -21 -21 985.6 970.2
06 9.08 ЮВ 9
{11}
20 км 9/0
[Ac trans]
-13.0 -25.9 33 -24 -24 983.5 968.1 -13.0 0.0
12 9.08 ЮВ 9
{11}
20 км 10/0
[Ac und]
-13.1 -27.7 28 -24 -24 983.9 968.4
18 9.08 ЮВ 6
{10}
20 км 9/0
[Ac trans Ci fib]
-14.4 -27.8 31 -24 -24 984.2 968.7 -12.8
00 10.08 ЮВ 5
{11}
20 км 10/0
[Ac und]
-14.1 -27.7 31 -22 -22 982.4 967.1
06 10.08 ЮВ 6
{11}
20 км 9/0
[Ac trans]
-13.0 -27.6 28 -22 -22 980.6 965.2 -15.1
12 10.08 В 6
{9}
20 км 10/4 1000 м
[Sc Ac und]
-13.1 -26.9 30 -22 -22 982.2 966.8
18 10.08 ЮВ 6
{9}
20 км 8/0
[Ac trans Ci fib]
-14.4 -28.6 29 -24 -24 982.3 966.8 -12.3
00 11.08 Ю 7
{9}
20 км 3/0
[Ci fib]
-15.4 -30.2 27 -26 -26 980.5 965.0
06 11.08 Ю 8
{9}
20 км 1/0
[Ci fib]
-15.1 -30.3 26 -26 -26 979.4 963.9 -16.6
12 11.08 Ю 9
{10}
20 км 3/0
[Ac trans]
-14.5 -27.8 31 -26 -26 979.5 964.0
18 11.08 ЮВ 6
{10}
20 км 9/0
[Ac As]
-11.1 -22.6 38 -20 -20 981.1 965.8 -10.4
00 12.08 Ю 7
{9}
20 км 3/0
[Ci fib]
-15.4 -30.2 27 -26 -26 980.5 965.0
12 12.08 ЮВ 9
{12}
20 км 10/3 1000 м
[Sc Ac und]
-7.1 -21.2 31 -16 -16 981.2 966.1
18 12.08 ЮВ 11
{13}
20 км 9/0
[Ac trans]
-7.4 -20.9 33 -17 -17 981.8 966.7 -6.3
00 13.08 ЮВ 10
{13}
20 км 9/0
[Ac trans]
-8.6 -21.5 34 -18 -18 982.9 967.7
06 13.08 ЮВ 8
{11}
20 км 6/0
[Ac trans Ci fib]
-11.2 -24.3 33 -21 -21 984.1 968.8 -11.2
12 13.08 ЮВ 12
{14}
20 км 4/0
[Ac lent Ci fib]
-12.7 -27.4 28 -25 -25 984.2 968.8
18 13.08 ЮВ 8
{15}
20 км 9/4 1000 м
[Sc Ac trans]
-11.3 -26.1 28 -21 -21 986.0 970.6 -11.2
00 14.08 Ю 8
{10}
20 км 3/0
[Ci fib]
-14.3 -27.1 33 -25 -25 985.8 970.2
06 14.08 ЮВ 10
{11}
20 км 3/0
[Ac trans Ci fib]
-11.8 -25.8 30 -23 -23 983.3 967.9 -14.3
12 14.08 ЮВ 8
{12}
20 км 9/0
[Ac trans Ci fib]
-10.8 -25.9 28 -21 -21 981.4 966.1
18 14.08 ЮВ 7
{10}
20 км 10/1 600 м
[Sc Ac und]
-9.8 -20.7 41 -19 -19 981.1 965.9 -9.5
00 15.08 ЮВ 6
{7}
20 км 8/0
[Ac trans]
-11.0 -21.2 43 -19 -19 981.8 966.5

 

Местоположение метеостанции Novolazarevskaja (Антарктида): широта -70.77 долгота 11.83 высота над уровнем моря 122 м.

В архиве по умолчанию представлена погода в Novolazarevskaja за последнюю неделю. Архивные данные за месяц целиком и за предыдущие месяцы, начиная с января 2011 года, Вы можете получить, выбрав интересующий диапазон дат из раскрывающегося списка и нажав кнопку "Ввод!".


*Определитесь, кто Вы:
робот инопланетянин человек

Внимание! Время в таблицах - всемирное. Для получения местного времени необходимо прибавить поправку, которая в Novolazarevskaja равна 0 ч.

Смотрите также архив погоды в соседних городах и на ближайших метеорологических станциях:

Погода в Maitri (Антарктида) (3 км)
Погода в Troll (Антарктида) (362 км)
Погода в SANAE (Антарктида) (532 км)
Погода в Kohnen Ep9 (Антарктида) (607 км)
Погода в Neumayer Station (Антарктида) (734 км)
Погода в Soerasen (Антарктида) (787 км)
Погода в Nordenskiold Base (Антарктида) (899 км)
Погода в Syowa (Антарктида) (1070 км)
Погода в Relay Station (Антарктида) (1096 км)
Погода в Halley (Антарктида) (1318 км)

Пояснения к столбцам:

Ветер - указаны скорость ветра в м/с - средняя за 10 мин, порывы в срок и между сроками (в фигурных скобках) и направление, откуда дует ветер: С - северный, СВ - северо-восточный, В - восточный, ЮВ - юго-восточный, Ю - южный, ЮЗ - юго-западный, З - западный, СЗ - северо-западный.
Видимость - горизонтальная дальность видимости в метрах или километрах. При видимости от 1 до 10 км при отсутствии осадков обычно наблюдается дымка, при ухудшении видимости до 1 км и менее - туман. В сухую погоду видимость может ухудшаться дымом, пылью или мглою.
Явления - указаны атмосферные явления, наблюдавшиеся в срок или в последний час перед сроком; фигурными скобками обозначены явления, наблюдавшиеся между сроками (за 1-3 часа до срока); квадратными скобками обозначены град или гололедные отложения с указанием их диаметра в мм.
Облачность - указаны через наклонную черту общая и нижняя облачность в баллах и высота нижней границы облаков в метрах; квадратными скобками обозначены формы облаков: Ci - перистые, Cs - перисто-слоистые, Cc - перисто-кучевые, Ac - высококучевые, As - высокослоистые, Sc - слоисто-кучевые, Ns - слоисто-дождевые, Cu - кучевые, Cb - кучево-дождевые. Подробнее классификацию облаков см. в Атласе облаков (PDF).
T - Температура воздуха - температура, измеренная на высоте 2 м над землей.
Td - Температура точки росы - температура, при понижении до которой содержащийся в воздухе водяной пар достигнет насыщения.
f - Относительная влажность воздуха - влажноcть воздуха, измеренная на высоте 2 м над землей.
Te - Эффективная температура - температура, которую ощущает одетый по сезону человек в тени. Характеристика душности погоды. При расчете учитывается влияние влажности воздуха и скорости ветра на теплоощущения человека.
Tes - Эффективная температура на солнце - температура, которую ощущает человек, с поправкой на солнечный нагрев. Характеристика знойности погоды. Зависит от высоты солнца над горизонтом, облачности и скорости ветра. Ночью, в пасмурную погоду, а также при ветре 12 м/с и более поправка равна нулю.
P - Атмосферное давление - приведенное к уровню моря атмосферное давление.
Po - Атмосферное давление - измеренное на уровне метеостанции атмосферное давление.
Tmin - Минимальная температура - минимум температуры воздуха на высоте 2 м над землей.
Tmax - Максимальная температура - максимум температуры воздуха на высоте 2 м над землей.
R - Количество осадков - Количество выпавших осадков за период времени, мм. При наведении курсора мыши на число - период времени, за который выпало указанное количество осадков.
R24 - Количество осадков - Количество выпавших осадков за 24 часа, мм.
S - Снежный покров - Высота снежного покрова, см. При наведении курсора мыши на число - состояние снежного покрова и степень покрытия местности в баллах.